Location: Serin Observatory
(40.5200°N, 74.4500°W)
Time: 01:14:03
(UTC+00:00)

SL-8 R/B - Visible Passes

Search period start: 21 December 2014 00:00
Search period end: 31 December 2014 00:00
Orbit: 658 x 670 km, 48.4° (Epoch: 19 December)

Date Brightness Start Highest point End Pass type
(mag) Time Alt. Az. Time Alt. Az. Time Alt. Az.
21 Dec 5.9 09:06:37 23° ENE 09:06:37 23° ENE 09:08:36 10° E visible
21 Dec 3.8 10:44:38 31° WNW 10:46:49 65° SW 10:51:34 10° SE visible
22 Dec 4.5 09:37:02 49° E 09:37:02 49° E 09:40:39 10° ESE visible
22 Dec 4.9 11:15:04 15° W 11:18:11 28° SW 11:22:16 10° SSE visible
23 Dec 3.8 10:07:31 60° SSW 10:07:31 60° SSW 10:12:11 10° SE visible
23 Dec 5.9 11:47:50 10° WSW 11:49:16 11° SW 11:50:42 10° SW visible
24 Dec 6.2 09:00:02 18° ESE 09:00:02 18° ESE 09:01:19 10° ESE visible
24 Dec 4.9 10:38:04 25° WSW 10:38:47 26° SW 10:42:45 10° SSE visible
25 Dec 5.5 09:30:38 26° SSE 09:30:38 26° SSE 09:32:46 10° SE visible
25 Dec 5.9 11:09:38 10° SW 11:09:51 10° SW 11:10:04 10° SW visible
26 Dec 5.6 10:01:19 19° SSW 10:01:19 19° SSW 10:03:13 10° S visible
30 Dec 5.8 00:02:53 10° S 00:04:11 16° S 00:04:11 16° S visible
